EW1836 Weather Reports


time (UTC)temp
F
wind
direction
speed
knots
gust
knots
rain 1hr
in
rain 24hr
in
rain mn
in
humidity
%
barometer
mb
20211017151546 57 74 0.0 10.4 0.00 0.00 0.00 59 1024.9
20211017150155 55 101 0.0 6.1 0.00 0.00 0.00 67 1024.8
20211017144609 53 291 3.5 9.6 0.00 0.00 0.00 68 1025.0
20211017143143 53 80 1.7 7.8 0.00 0.00 0.00 71 1024.8
20211017141533 52 42 2.6 8.7 0.00 0.00 0.00 72 1024.7
20211017140114 51 77 2.6 10.4 0.00 0.00 0.00 72 1024.6
20211017134530 50 341 0.0 7.8 0.00 0.00 0.00 75 1024.4
20211017133120 49 34 1.7 6.1 0.00 0.00 0.00 79 1024.1
20211017131519 47 23 0.0 7.0 0.00 0.00 0.00 82 1024.1
20211017130121 46 28 0.0 3.5 0.00 0.00 0.00 85 1023.8
20211017124511 45 301 0.0 4.3 0.00 0.00 0.00 89 1023.6
20211017123116 44 36 0.0 0.0 0.00 0.00 0.00 88 1023.6
20211017121515 45 355 0.0 0.0 0.00 0.00 0.00 87 1023.6
20211017120058 45 355 0.0 0.0 0.00 0.00 0.00 87 1023.5
20211017114606 45 348 0.0 0.0 0.00 0.00 0.00 86 1023.4
20211017113011 46 51 0.9 3.5 0.00 0.00 0.00 85 1023.2
20211017111552 46 311 1.7 6.1 0.00 0.00 0.00 84 1023.1
20211017110041 46 295 0.0 4.3 0.00 0.00 0.00 84 1022.9
20211017104605 46 350 0.0 0.9 0.00 0.00 0.00 84 1022.8
20211017103020 46 163 0.0 0.9 0.00 0.00 0.00 85 1022.8
20211017101508 46 297 0.0 4.3 0.00 0.00 0.00 85 1022.6
20211017100100 45 350 0.0 3.5 0.00 0.00 0.00 88 1022.4
20211017094610 45 5 0.9 4.3 0.00 0.00 0.00 89 1022.3
20211017093106 45 33 0.0 5.2 0.00 0.00 0.00 90 1022.2
20211017091556 44 17 0.0 3.5 0.00 0.00 0.00 91 1022.1
20211017090131 44 22 0.0 0.0 0.00 0.00 0.00 92 1022.2
20211017084626 44 28 0.0 3.5 0.00 0.00 0.00 92 1022.2
20211017083155 43 333 0.0 1.7 0.00 0.00 0.00 93 1022.1
20211017081550 43 325 0.0 0.0 0.00 0.00 0.00 93 1022.1
20211017080104 43 286 0.0 0.0 0.00 0.00 0.00 93 1022.1
20211017074556 43 259 0.0 0.0 0.00 0.00 0.00 93 1022.1
20211017073041 43 259 0.0 0.0 0.00 0.00 0.00 92 1022.0
20211017071538 43 259 0.0 0.0 0.00 0.00 0.00 92 1022.0
20211017070057 43 259 0.0 0.0 0.00 0.00 0.00 91 1022.1
20211017064607 43 259 0.0 0.0 0.00 0.00 0.00 92 1022.2
20211017063042 43 259 0.0 0.0 0.00 0.00 0.00 92 1022.1
20211017061541 43 259 0.0 0.0 0.00 0.00 0.00 91 1022.1
20211017060027 43 259 0.0 0.0 0.00 0.00 0.00 91 1022.0
20211017054532 43 259 0.0 0.0 0.00 0.00 0.00 90 1021.9
20211017053023 43 259 0.0 0.0 0.00 0.00 0.00 91 1021.9
20211017051552 44 259 0.0 0.0 0.00 0.00 0.00 91 1021.9
20211017050019 44 259 0.0 0.0 0.00 0.00 0.00 91 1021.8
20211017044530 44 259 0.0 0.0 0.00 0.00 0.00 90 1021.8
20211017043023 44 259 0.0 0.0 0.00 0.00 0.00 90 1021.9
20211017041512 44 259 0.0 0.0 0.00 0.00 0.00 89 1022.0
20211017040010 45 259 0.0 0.0 0.00 0.00 0.00 89 1022.0
20211017034508 45 259 0.0 0.0 0.00 0.00 0.00 88 1022.0
20211017033008 46 259 0.0 0.0 0.00 0.00 0.00 88 1021.9
20211017031506 46 259 0.0 0.0 0.00 0.00 0.00 87 1021.9
20211017030147 47 259 0.0 0.0 0.00 0.00 0.00 86 1021.9
20211017024709 47 259 0.0 0.0 0.00 0.00 0.00 85 1021.9
20211017023208 48 259 0.0 0.0 0.00 0.00 0.00 85 1021.9
20211017021642 48 259 0.0 0.0 0.00 0.00 0.00 83 1021.7
20211017020105 49 259 0.0 0.0 0.00 0.00 0.00 84 1021.6
20211017014723 50 259 0.0 0.0 0.00 0.00 0.00 83 1021.4
20211017013051 50 259 0.0 0.0 0.00 0.00 0.00 82 1021.2
20211017011623 51 259 0.0 0.0 0.00 0.00 0.00 81 1021.1
20211017010142 51 259 0.0 0.0 0.00 0.00 0.00 79 1021.1
20211017004631 52 259 0.0 0.0 0.00 0.00 0.00 76 1020.9
20211017003116 53 259 0.0 0.0 0.00 0.00 0.00 76 1020.8
20211017001553 54 259 0.0 0.0 0.00 0.00 0.00 73 1020.6
20211017000045 55 259 0.0 0.0 0.00 0.00 0.00 71 1020.4
20211016234632 56 265 0.0 0.0 0.00 0.00 0.00 70 1020.1
20211016233027 57 264 0.0 0.9 0.00 0.00 0.00 67 1019.9
20211016231520 58 181 0.0 0.9 0.00 0.00 0.00 65 1019.6
20211016230016 59 293 0.0 0.0 0.00 0.00 0.00 59 1019.5
20211016224514 60 128 0.0 0.9 0.00 0.00 0.00 56 1019.3
20211016223012 61 103 0.0 1.7 0.00 0.00 0.00 54 1019.2
20211016221531 62 5 0.0 1.7 0.00 0.00 0.00 52 1018.9
20211016220010 63 80 0.9 7.0 0.00 0.00 0.00 50 1018.7
20211016214506 64 15 0.9 6.1 0.00 0.00 0.00 49 1018.5
20211016213007 64 42 0.0 7.0 0.00 0.00 0.00 47 1018.3
20211016211505 65 247 0.9 7.8 0.00 0.00 0.00 49 1018.2
20211016204503 65 276 1.7 11.3 0.00 0.00 0.00 48 1018.1
20211016203002 66 94 1.7 7.8 0.00 0.00 0.00 50 1018.0
20211016200157 67 340 1.7 7.8 0.00 0.00 0.00 53 1017.9
20211016194619 67 278 0.9 7.8 0.00 0.00 0.00 55 1017.7
20211016193113 67 35 3.5 12.2 0.00 0.00 0.00 52 1017.6
20211016191638 67 38 2.6 11.3 0.00 0.00 0.00 52 1017.7
20211016190121 67 272 1.7 9.6 0.00 0.00 0.00 57 1017.8
20211016184739 67 287 0.9 8.7 0.00 0.00 0.00 58 1017.8
20211016183112 67 76 0.9 11.3 0.00 0.00 0.00 58 1017.7
20211016181632 67 190 0.9 9.6 0.00 0.00 0.00 62 1017.9
20211016180137 66 314 3.5 11.3 0.00 0.00 0.00 63 1018.0
20211016174641 66 153 0.0 9.6 0.00 0.00 0.00 66 1018.1
20211016173138 66 298 3.5 13.0 0.00 0.00 0.00 67 1018.1
20211016171604 65 318 0.9 7.0 0.00 0.00 0.00 70 1018.3
20211016170056 64 31 2.6 12.2 0.00 0.00 0.00 70 1018.2
20211016164627 63 350 1.7 7.0 0.00 0.00 0.00 72 1018.3
20211016163124 63 355 2.6 11.3 0.00 0.00 0.00 75 1018.4
20211016161611 63 279 1.7 7.0 0.00 0.00 0.00 78 1018.4
20211016160029 61 275 0.9 10.4 0.00 0.00 0.00 79 1018.3
20211016154528 60 322 0.9 11.3 0.00 0.00 0.00 83 1018.4
20211016153016 60 73 1.7 8.7 0.00 0.00 0.00 83 1018.3